Regional Weather Roundup
Issued by NWS Jackson, KY

Home | Current Version | Previous Version | Graphics & Text | Print | Product List | Glossary On
Versions: 1 2 3 4 5 6 7 8 9 10 11 12 13 14 15 16 17 18 19 20 21 22 23 24 25 26 27 28 29 30 31 32 33 34 35 36 37 38 39 40 41 42 43 44 45 46 47 48 49 50
000
ASUS43 KJKL 302305
RWRJKL

EAST KENTUCKY HOURLY WEATHER ROUNDUP
NATIONAL WEATHER SERVICE JACKSON KY
600 PM EST FRI JAN 30 2015

NOTE: "FAIR" INDICATES FEW OR NO CLOUDS BELOW 12,000 FEET WITH
NO SIGNIFICANT WEATHER AND/OR OBSTRUCTIONS TO VISIBILITY.

* THESE REPORTS ARE NOT UNDER NWS QUALITY CONTROL AND MAY NOT
  REPORT WEATHER SUCH AS PRECIPITATION AND FOG.

KYZ079-080-083-085-087-088-110-112-115-119-120-310000
...EASTERN KENTUCKY...

CITY           SKY/WX    TMP DP  RH WIND       PRES   REMARKS
JACKSON        CLEAR     30  14  51 N5        30.38R WCI  25
LONDON         CLEAR     35  13  40 N7        30.38S WCI  29
SOMERSET*      CLEAR     34  16  47 N6        30.42R WCI  29
MONTICELLO*    CLEAR     36  19  50 N7        30.43R WCI  30
MIDDLESBORO*   CLEAR     35  18  51 N6        30.37S WCI  30
HARLAN APT*    CLEAR     32  12  43 NW3       30.35S
BLACK MTN*       N/A     18  16  93 N3          N/A
PIKEVILLE APT* CLEAR     28  12  50 N5        30.35S WCI  23
BIG SANDY*     CLEAR     29  12  48 N3        30.38S
MOREHEAD APT*  CLEAR     28  12  50 N7        30.44S WCI  21
$$

KYZ035-036-041-042-044-050-067-078-099-310000
...CENTRAL KENTUCKY...

CITY           SKY/WX    TMP DP  RH WIND       PRES   REMARKS
MT STERLING*   CLEAR     30  16  55 NE3       30.44R
FLEMING/MASON* CLEAR     27  13  56 N7        30.45R WCI  19
DANVILLE*      CLEAR     32  18  55 N5        30.42S WCI  27
RICHMOND*      CLEAR     32  14  47 NW5       30.41R WCI  27
LEXINGTON      CLEAR     31  15  52 N8        30.42S WCI  23
FRANKFORT      CLEAR     32  13  45 N9        30.43R WCI  24
$$

KYZ091>093-OHZ055-061-077-WVZ005-015-034-035-042-310000
...SOUTHERN OHIO/WEST VIRGINIA...

CITY           SKY/WX    TMP DP  RH WIND       PRES   REMARKS
COVINGTON      PTCLDY    28  15  58 N5        30.44R WCI  23
COLUMBUS       PTCLDY    20   8  60 NW8       30.43S WCI  10
DAYTON         PTCLDY    22  13  68 N6        30.44F WCI  14
WILMINGTON     CLEAR     22  12  65 N8        30.43R WCI  12
HUNTINGTON     CLEAR     26  13  57 N6        30.42R WCI  19
CHARLESTON     PTCLDY    26  10  50 W8G20     30.40R WCI  18
PINEVILLE*     CLEAR     28  15  57 MISG      30.37R
BECKLEY        MOCLDY    19   7  59 NW13G21   30.26R WCI   6
BLUEFIELD      CLEAR     23   8  52 NW13G20   30.22R WCI  11
$$

VAZ002-007-008-TNZ017-027-036-066-071-310000
...SOUTHWEST VIRGINIA/EAST TENNESSEE...

CITY           SKY/WX    TMP DP  RH WIND       PRES   REMARKS
WISE*          CLEAR     28  12  50 NW7       30.28S WCI  21
JONESVILLE*    CLEAR     32  16  51 NW3       30.37R
ABINGDON*      CLEAR     32  14  47 N9        30.28R WCI  24
BRISTOL        PTCLDY    34  14  43 NW10      30.31S WCI  26
KNOXVILLE      PTCLDY    39  17  41 N6        30.35F WCI  35
OAK RIDGE      CLEAR     41  17  38 NW6       30.38R
CROSSVILLE     CLEAR     36  17  46 N5        30.35R WCI  32
NASHVILLE      PTCLDY    41  19  41 N8        30.43S
$$

...KEY TO REMARKS...
VSB - VISIBILITY IN MILES
WCI - WIND CHILL INDEX
HX  - HEAT INDEX

$$



USA.gov is the U.S. government's official web portal to all federal, state and local government web resources and services.